TimeCDT,TemperatureF,Dew PointF,Humidity,Sea Level PressureIn,VisibilityMPH,Wind Direction,Wind SpeedMPH,Gust SpeedMPH,PrecipitationIn,Events,Conditions,WindDirDegrees,DateUTC
12:12 AM,50.0,42.8,76,29.81,10.0,NE,16.1,23.0,N/A,,Clear,50,2012-10-04 05:12:00
12:33 AM,50.0,42.8,76,29.81,10.0,NNE,12.7,-,N/A,,Clear,30,2012-10-04 05:33:00
12:53 AM,50.0,42.8,76,29.81,10.0,NE,13.8,21.9,N/A,,Clear,40,2012-10-04 05:53:00
1:12 AM,48.2,42.8,82,29.79,10.0,NE,13.8,20.7,N/A,,Clear,50,2012-10-04 06:12:00
1:33 AM,48.2,42.8,82,29.78,10.0,NE,13.8,21.9,N/A,,Clear,40,2012-10-04 06:33:00
1:53 AM,48.2,42.8,82,29.78,10.0,NE,12.7,18.4,N/A,,Clear,40,2012-10-04 06:53:00
2:12 AM,48.2,42.8,82,29.77,10.0,NNE,12.7,-,N/A,,Scattered Clouds,30,2012-10-04 07:12:00
2:33 AM,48.2,42.8,82,29.75,10.0,NNE,12.7,19.6,N/A,,Scattered Clouds,20,2012-10-04 07:33:00
2:52 AM,46.4,42.8,87,29.76,10.0,NNE,9.2,16.1,N/A,,Mostly Cloudy,20,2012-10-04 07:52:00
3:13 AM,46.4,42.8,87,29.76,10.0,North,8.1,16.1,N/A,,Overcast,360,2012-10-04 08:13:00
3:33 AM,46.4,42.8,87,29.75,10.0,North,9.2,-,N/A,,Overcast,360,2012-10-04 08:33:00
3:52 AM,46.4,42.8,87,29.75,10.0,North,12.7,19.6,N/A,,Overcast,360,2012-10-04 08:52:00
4:13 AM,46.4,42.8,87,29.74,10.0,North,9.2,18.4,N/A,,Overcast,360,2012-10-04 09:13:00
4:33 AM,46.4,42.8,87,29.75,10.0,NNW,17.3,23.0,N/A,,Overcast,340,2012-10-04 09:33:00
4:52 AM,44.6,41.0,87,29.76,10.0,NW,19.6,-,N/A,,Overcast,320,2012-10-04 09:52:00
5:13 AM,42.8,41.0,93,29.76,10.0,NW,23.0,-,N/A,,Overcast,320,2012-10-04 10:13:00
5:33 AM,42.8,41.0,93,29.77,10.0,NNW,26.5,32.2,N/A,,Overcast,330,2012-10-04 10:33:00
5:52 AM,39.2,37.4,93,29.78,7.0,NW,26.5,33.4,N/A,,Drizzle,320,2012-10-04 10:52:00
6:13 AM,35.6,35.6,100,29.81,2.5,NW,25.3,35.7,N/A,,Drizzle,310,2012-10-04 11:13:00
6:33 AM,33.8,33.8,100,29.81,1.8,NW,31.1,41.4,0.02,Rain,Light Rain,320,2012-10-04 11:33:00
6:52 AM,33.8,33.8,100,29.82,2.0,NW,32.2,40.3,0.03,Rain,Light Rain,320,2012-10-04 11:52:00
7:13 AM,32.0,32.0,100,29.83,2.5,NW,28.8,39.1,0.01,,Overcast,320,2012-10-04 12:13:00
7:33 AM,32.0,32.0,100,29.84,2.5,NW,29.9,40.3,0.02,Snow,Light Snow,320,2012-10-04 12:33:00
7:52 AM,32.0,32.0,100,29.84,1.8,NNW,31.1,40.3,0.02,Snow,Light Snow,330,2012-10-04 12:52:00
8:13 AM,32.0,32.0,100,29.84,0.8,NNW,27.6,38.0,0.01,Snow,Light Snow,330,2012-10-04 13:13:00
8:33 AM,33.8,33.8,100,29.84,1.0,NNW,25.3,34.5,0.02,Snow,Light Snow,340,2012-10-04 13:33:00
8:52 AM,32.0,32.0,100,29.87,4.0,NW,18.4,26.5,0.02,Snow,Light Snow,310,2012-10-04 13:52:00
9:13 AM,32.0,32.0,100,29.88,2.5,NW,23.0,28.8,N/A,Snow,Light Snow,310,2012-10-04 14:13:00
9:33 AM,32.0,32.0,100,29.90,1.2,NW,24.2,29.9,N/A,Snow,Light Snow,310,2012-10-04 14:33:00
9:53 AM,32.0,32.0,100,29.91,0.8,WNW,25.3,32.2,N/A,Snow,Light Snow,300,2012-10-04 14:53:00
10:13 AM,32.0,32.0,100,29.92,1.0,NW,25.3,35.7,N/A,Snow,Light Snow,310,2012-10-04 15:13:00
10:33 AM,32.0,32.0,100,29.93,1.0,WNW,29.9,39.1,N/A,Snow,Light Snow,300,2012-10-04 15:33:00
10:53 AM,32.0,32.0,100,29.94,0.8,NW,29.9,35.7,N/A,Snow,Light Snow,310,2012-10-04 15:53:00
11:13 AM,33.8,32.0,93,29.95,1.2,NW,26.5,36.8,N/A,Snow,Light Snow,310,2012-10-04 16:13:00
11:33 AM,33.8,33.8,100,29.96,1.5,NW,28.8,38.0,N/A,Snow,Light Snow,310,2012-10-04 16:33:00
11:52 AM,33.8,33.8,100,29.97,2.5,NW,27.6,40.3,N/A,Snow,Light Snow,310,2012-10-04 16:52:00
12:13 PM,33.8,33.8,100,29.99,5.0,WNW,28.8,44.9,N/A,Snow,Light Snow,300,2012-10-04 17:13:00
12:33 PM,33.8,33.8,100,30.00,7.0,NW,32.2,39.1,N/A,Snow,Light Snow,310,2012-10-04 17:33:00
12:52 PM,33.8,33.8,100,30.00,10.0,NW,29.9,43.7,N/A,,Overcast,310,2012-10-04 17:52:00
1:33 PM,35.6,33.8,93,29.99,10.0,NW,26.5,48.3,N/A,,Overcast,310,2012-10-04 18:33:00
1:52 PM,35.6,33.8,93,30.00,10.0,NW,26.5,39.1,N/A,,Overcast,310,2012-10-04 18:52:00
2:13 PM,35.6,33.8,93,30.01,10.0,NW,33.4,43.7,N/A,,Overcast,310,2012-10-04 19:13:00
2:33 PM,35.6,33.8,93,30.02,5.0,WNW,31.1,42.6,N/A,Rain,Light Rain,300,2012-10-04 19:33:00
2:53 PM,35.6,35.6,100,30.02,10.0,NW,29.9,42.6,N/A,Rain,Light Rain,310,2012-10-04 19:53:00
3:13 PM,35.6,35.6,100,30.02,10.0,NW,27.6,39.1,N/A,Rain,Light Rain,310,2012-10-04 20:13:00
3:33 PM,35.6,33.8,93,30.03,10.0,NW,29.9,38.0,N/A,,Mostly Cloudy,310,2012-10-04 20:33:00
3:53 PM,35.6,33.8,93,30.05,10.0,WNW,24.2,34.5,N/A,,Overcast,300,2012-10-04 20:53:00
4:13 PM,35.6,33.8,93,30.05,10.0,NW,31.1,41.4,N/A,,Mostly Cloudy,310,2012-10-04 21:13:00
4:32 PM,35.6,32.0,87,30.06,10.0,NW,27.6,41.4,N/A,,Overcast,310,2012-10-04 21:32:00
4:53 PM,35.6,33.8,93,30.07,10.0,NW,28.8,39.1,N/A,,Overcast,310,2012-10-04 21:53:00
5:13 PM,35.6,33.8,93,30.08,10.0,NW,23.0,33.4,N/A,,Drizzle,320,2012-10-04 22:13:00
5:32 PM,35.6,33.8,93,30.09,10.0,NW,20.7,32.2,N/A,,Light Drizzle,320,2012-10-04 22:32:00
5:53 PM,35.6,33.8,93,30.10,3.0,NW,18.4,27.6,N/A,,Drizzle,320,2012-10-04 22:53:00
6:13 PM,35.6,33.8,93,30.11,7.0,NW,15.0,21.9,N/A,,Overcast,320,2012-10-04 23:13:00
6:32 PM,35.6,33.8,93,30.11,7.0,NW,15.0,18.4,N/A,,Light Drizzle,320,2012-10-04 23:32:00
6:53 PM,35.6,35.6,100,30.11,4.0,NW,18.4,27.6,0.01,Rain,Light Rain,310,2012-10-04 23:53:00
7:12 PM,35.6,35.6,100,30.10,7.0,NW,31.1,40.3,N/A,Rain,Light Rain,310,2012-10-05 00:12:00
7:33 PM,35.6,33.8,93,30.11,10.0,NW,25.3,33.4,N/A,,Overcast,310,2012-10-05 00:33:00
7:53 PM,35.6,33.8,93,30.11,10.0,NW,24.2,32.2,N/A,,Mostly Cloudy,310,2012-10-05 00:53:00
9:13 PM,35.6,32.0,87,30.11,10.0,NW,28.8,35.7,N/A,,Overcast,310,2012-10-05 02:13:00
9:33 PM,35.6,32.0,87,30.12,10.0,NW,23.0,34.5,N/A,,Overcast,310,2012-10-05 02:33:00
9:53 PM,35.6,32.0,87,30.11,10.0,NW,23.0,33.4,N/A,,Overcast,310,2012-10-05 02:53:00
10:13 PM,35.6,32.0,87,30.12,10.0,NW,24.2,35.7,N/A,,Overcast,310,2012-10-05 03:13:00
10:33 PM,35.6,32.0,87,30.13,10.0,NW,23.0,34.5,N/A,,Overcast,310,2012-10-05 03:33:00
10:53 PM,35.6,32.0,87,30.12,10.0,NW,28.8,43.7,N/A,,Overcast,310,2012-10-05 03:53:00
11:13 PM,35.6,32.0,87,30.13,10.0,NW,24.2,36.8,N/A,,Overcast,310,2012-10-05 04:13:00
11:33 PM,35.6,32.0,87,30.13,10.0,NW,23.0,34.5,N/A,,Overcast,310,2012-10-05 04:33:00
11:53 PM,35.6,32.0,87,30.13,10.0,NW,25.3,33.4,N/A,,Overcast,310,2012-10-05 04:53:00